Change the Weather History Date:

Friday, April 4, 2014

  Actual Average Record
Temperature  
Mean Temperature 40 °F 45 °F  
Max Temperature 45 °F 56 °F 75 °F (2005)
Min Temperature 34 °F 33 °F 22 °F (2000)
Degree Days  
Heating Degree Days 25 21  
Month to date heating degree days 95 85  
Since 1 July heating degree days 6752 6093  
Cooling Degree Days 0 0  
Month to date cooling degree days 0 0  
Year to date cooling degree days 0 0  
Moisture  
Dew Point 35 °F    
Average Humidity 82    
Maximum Humidity 93    
Minimum Humidity 70    
Precipitation  
Precipitation 0.00 in 0.09 in 1.10 in (2003)
Month to date precipitation 0.82 0.39  
Year to date precipitation 3.39 5.71  
Sea Level Pressure  
Sea Level Pressure 29.64 in    
Wind  
Wind Speed 19 mph (WSW)    
Max Wind Speed 35 mph    
Max Gust Speed 42 mph    
Visibility 6 miles    
Events Fog    
T = Trace of Precipitation, MM = Missing Value Source: NWS Daily Summary

Daily Weather History Graph

Daily Weather History Graph

Search for Another Location

Airport or City:

Trip Planner

Search our weather history database for the weather conditions in past years. The results will help you decide how hot, cold, wet, or windy it might be!

Date:

Astronomy

Apr. 04, 2014 Rise Set
Actual Time 6:31 AM CDT 7:22 PM CDT
Civil Twilight 6:03 AM CDT 7:50 PM CDT
Nautical Twilight 5:30 AM CDT 8:24 PM CDT
Astronomical Twilight 4:55 AM CDT 8:59 PM CDT
Moon 9:45 AM CDT (4/4) No Moon Set
Length of Visible Light 13h 47m
Length of Day
12h 50m
Waxing Crescent, 25% of the Moon is Illuminated
Apr 4
Waxing Crescent
Apr 7
First Quarter
Apr 15
Full
Apr 22
Last Quarter
Apr 29
New

Hourly Weather History & Observations

Time (CDT) Temp. Windchill Dew Point Humidity Pressure Visibility Wind Dir Wind Speed Gust Speed Precip Events Conditions
12:45 AM 39.9 °F 32.5 °F 37.9 °F 93% 29.65 in 2.5 mi East 12.7 mph - N/A   Overcast
12:52 AM 39.9 °F 32.1 °F 37.9 °F 93% 29.67 in 2.5 mi East 13.8 mph - N/A   Overcast
1:10 AM 39.9 °F 32.5 °F 37.9 °F 93% 29.65 in 1.5 mi East 12.7 mph - N/A   Overcast
1:33 AM 39.9 °F 33.4 °F 37.9 °F 93% 29.62 in 0.8 mi ESE 10.4 mph - N/A   Overcast
2:39 AM 39.9 °F 33.4 °F 39.0 °F 97% 29.56 in 1.0 mi ESE 10.4 mph - N/A   Overcast
2:52 AM 41.0 °F 33.9 °F 39.0 °F 93% 29.57 in 1.5 mi ESE 12.7 mph - N/A   Overcast
3:52 AM 41.0 °F 34.7 °F 39.0 °F 93% 29.52 in 0.8 mi ESE 10.4 mph - N/A   Overcast
4:52 AM 41.0 °F 35.8 °F 39.9 °F 96% 29.49 in 0.5 mi SE 8.1 mph - N/A Fog Fog
5:52 AM 42.1 °F 37.7 °F 39.9 °F 92% 29.50 in 0.2 mi South 6.9 mph - N/A Fog Fog
6:05 AM 42.1 °F 36.6 °F 39.9 °F 92% 29.49 in 0.5 mi South 9.2 mph - N/A Fog Fog
6:12 AM 42.1 °F 37.1 °F 39.9 °F 92% 29.50 in 0.2 mi SSW 8.1 mph - N/A Fog Fog
6:45 AM 42.1 °F 37.7 °F 39.9 °F 92% 29.50 in 0.5 mi SW 6.9 mph - N/A Fog Fog
6:52 AM 42.1 °F 37.7 °F 39.9 °F 92% 29.52 in 0.5 mi SSW 6.9 mph - N/A Fog Fog
7:27 AM 43.0 °F 36.8 °F 41.0 °F 93% 29.49 in 1.5 mi WSW 11.5 mph - N/A   Overcast
7:37 AM 44.1 °F 36.5 °F 42.1 °F 93% 29.50 in 2.0 mi WSW 17.3 mph 23.0 mph N/A   Overcast
7:52 AM 44.1 °F 36.5 °F 42.1 °F 93% 29.51 in 2.5 mi WSW 17.3 mph - N/A   Mostly Cloudy
7:56 AM 44.1 °F 36.2 °F 42.1 °F 93% 29.49 in 3.0 mi WSW 18.4 mph - N/A   Mostly Cloudy
8:39 AM 44.1 °F 36.8 °F 41.0 °F 89% 29.50 in 7.0 mi WSW 16.1 mph - N/A   Overcast
8:52 AM 42.1 °F 31.9 °F 39.0 °F 89% 29.51 in 5.0 mi West 26.5 mph - N/A   Overcast
9:52 AM 42.1 °F 32.6 °F 37.0 °F 82% 29.54 in 7.0 mi West 23.0 mph 31.1 mph N/A   Overcast
9:59 AM 41.0 °F 30.2 °F 36.0 °F 82% 29.52 in 7.0 mi West 27.6 mph 36.8 mph N/A   Overcast
10:52 AM 39.9 °F 29.2 °F 34.0 °F 79% 29.56 in 9.0 mi West 25.3 mph 31.1 mph N/A   Overcast
11:52 AM 39.0 °F 26.8 °F 33.1 °F 79% 29.58 in 10.0 mi West 32.2 mph 40.3 mph N/A   Overcast
12:52 PM 39.0 °F 27.0 °F 30.9 °F 73% 29.61 in 10.0 mi West 31.1 mph 39.1 mph N/A   Overcast
1:52 PM 39.0 °F 27.8 °F 30.9 °F 73% 29.64 in 10.0 mi West 26.5 mph 35.7 mph N/A   Overcast
2:52 PM 37.9 °F 25.9 °F 30.0 °F 73% 29.68 in 10.0 mi West 28.8 mph 34.5 mph N/A   Overcast
3:52 PM 37.0 °F 25.1 °F 28.9 °F 73% 29.72 in 10.0 mi West 26.5 mph 35.7 mph N/A   Overcast
4:09 PM 37.0 °F 25.4 °F 28.9 °F 73% 29.72 in 10.0 mi West 25.3 mph - N/A   Overcast
4:52 PM 37.9 °F 27.1 °F 28.0 °F 68% 29.77 in 10.0 mi West 23.0 mph 31.1 mph N/A   Overcast
5:52 PM 37.0 °F 26.4 °F 28.0 °F 70% 29.81 in 10.0 mi West 20.7 mph - N/A   Overcast
6:52 PM 37.0 °F 26.4 °F 28.0 °F 70% 29.86 in 10.0 mi West 20.7 mph 29.9 mph N/A   Overcast
7:52 PM 36.0 °F 25.0 °F 28.0 °F 73% 29.90 in 10.0 mi West 20.7 mph 27.6 mph N/A   Overcast
8:52 PM 37.0 °F 26.7 °F 28.0 °F 70% 29.94 in 10.0 mi WNW 19.6 mph - N/A   Overcast
9:52 PM 37.0 °F 26.4 °F 28.0 °F 70% 29.98 in 10.0 mi NW 20.7 mph - N/A   Overcast
10:52 PM 36.0 °F 28.5 °F 28.0 °F 73% 30.02 in 10.0 mi WNW 10.4 mph - N/A   Overcast
11:52 PM 35.1 °F 27.9 °F 28.0 °F 76% 30.04 in 10.0 mi WNW 9.2 mph - N/A   Mostly Cloudy